Weather History for Coatesville, PA

Change the Weather History Date:

Friday, February 8, 2013

  Actual Average (KLNS) Record (KLNS)
Temperature  
Mean Temperature 34 °F -  
Max Temperature 35 °F 37 °F 58 °F (1990)
Min Temperature 32 °F 20 °F 8 °F (2007)
Degree Days  
Heating Degree Days 32    
Moisture  
Dew Point 32 °F    
Average Humidity 92    
Maximum Humidity 100    
Minimum Humidity 69    
Precipitation  
Precipitation 3.01 in - - ()
Sea Level Pressure  
Sea Level Pressure 29.91 in    
Wind  
Wind Speed 7 mph (NNE)    
Max Wind Speed 22 mph    
Max Gust Speed 31 mph    
Visibility 5 miles    
Events Rain , Snow    
Averages and records for this station are not official NWS values.
T = Trace of Precipitation, MM = Missing Value Source: NWS Daily Summary

Daily Weather History Graph

Daily Weather History Graph

Search for Another Location

Airport:

Trip Planner

Search our weather history database for the weather conditions in past years. The results will help you decide how hot, cold, wet, or windy it might be!

Date:

Astronomy

Feb. 08, 2013 Rise Set
Actual Time 7:04 AM EST 5:31 PM EST
Civil Twilight 6:36 AM EST 5:59 PM EST
Nautical Twilight 6:04 AM EST 6:31 PM EST
Astronomical Twilight 5:32 AM EST 7:03 PM EST
Moon 5:31 AM EST (2/8) 4:02 PM EST (2/8)
Length of Visible Light 11h 23m
Length of Day
10h 27m
Waning Crescent, 3% of the Moon is Illuminated
Feb 8
Waning Crescent
Feb 10
New
Feb 17
First Quarter
Feb 25
Full
Mar 4
Last Quarter

Hourly Weather History & Observations

Time (EST) Temp. Windchill Dew Point Humidity Pressure Visibility Wind Dir Wind Speed Gust Speed Precip Events Conditions
12:15 AM 32.0 °F 26.4 °F 23.0 °F 69% 30.24 in 10.0 mi ENE 5.8 mph - N/A   Overcast
12:35 AM 32.0 °F 24.2 °F 23.0 °F 69% 30.23 in 10.0 mi ENE 9.2 mph - N/A   Overcast
12:55 AM 32.0 °F 23.6 °F 24.8 °F 75% 30.22 in 10.0 mi East 10.4 mph 18.4 mph N/A   Overcast
1:15 AM 32.0 °F 24.2 °F 24.8 °F 75% 30.21 in 10.0 mi ENE 9.2 mph - N/A   Overcast
1:35 AM 32.0 °F - 24.8 °F 75% 30.20 in 10.0 mi Calm Calm - N/A   Overcast
1:55 AM 32.0 °F 27.5 °F 24.8 °F 75% 30.19 in 10.0 mi NE 4.6 mph - N/A   Overcast
2:15 AM 32.0 °F 28.7 °F 23.0 °F 69% 30.18 in 10.0 mi ENE 3.5 mph - N/A   Overcast
2:35 AM 32.0 °F 28.7 °F 24.8 °F 75% 30.17 in 10.0 mi ENE 3.5 mph - N/A   Overcast
2:55 AM 32.0 °F 23.0 °F 26.6 °F 80% 30.14 in 10.0 mi East 11.5 mph 18.4 mph N/A   Overcast
3:15 AM 32.0 °F 24.8 °F 26.6 °F 80% 30.13 in 10.0 mi ENE 8.1 mph 16.1 mph N/A   Scattered Clouds
3:35 AM 32.0 °F 28.7 °F 28.4 °F 87% 30.12 in 10.0 mi NE 3.5 mph - N/A   Mostly Cloudy
3:55 AM 32.0 °F - 28.4 °F 87% 30.12 in 10.0 mi Calm Calm - N/A   Overcast
4:15 AM 32.0 °F 26.4 °F 28.4 °F 87% 30.11 in 10.0 mi NE 5.8 mph - N/A   Overcast
4:35 AM 32.0 °F 28.7 °F 30.2 °F 93% 30.10 in 10.0 mi NE 3.5 mph - N/A   Overcast
4:55 AM 32.0 °F 28.7 °F 30.2 °F 93% 30.09 in 10.0 mi NE 3.5 mph - N/A   Overcast
5:15 AM 33.8 °F 30.8 °F 32.0 °F 93% 30.08 in 10.0 mi NE 3.5 mph - N/A   Overcast
5:35 AM 33.8 °F - 32.0 °F 93% 30.07 in 10.0 mi Calm Calm - N/A   Overcast
5:55 AM 33.8 °F 29.6 °F 32.0 °F 93% 30.06 in 10.0 mi NE 4.6 mph - N/A   Overcast
6:15 AM 33.8 °F 29.6 °F 32.0 °F 93% 30.05 in 5.0 mi NE 4.6 mph - N/A   Overcast
6:55 AM 33.8 °F - 32.0 °F 93% 30.04 in 4.0 mi Calm Calm - 0.02 in Rain Light Rain
7:15 AM 33.8 °F 28.6 °F 32.0 °F 93% 30.02 in 4.0 mi NE 5.8 mph - 0.02 in Rain Light Rain
7:35 AM 33.8 °F 27.7 °F 33.8 °F 100% 30.02 in 3.0 mi NE 6.9 mph - 0.04 in Rain Light Rain
7:55 AM 33.8 °F 28.6 °F 33.8 °F 100% 30.01 in 3.0 mi NE 5.8 mph - 0.06 in Rain Light Rain
8:15 AM 33.8 °F 28.6 °F 33.8 °F 100% 30.00 in 3.0 mi NE 5.8 mph - N/A Rain Light Rain
8:35 AM 33.8 °F 29.6 °F 33.8 °F 100% 29.99 in 3.0 mi NE 4.6 mph - 0.01 in Rain Light Rain
8:55 AM 33.8 °F 27.7 °F 33.8 °F 100% 29.97 in 3.0 mi NE 6.9 mph - 0.03 in Rain Light Rain
9:15 AM 33.8 °F 27.0 °F 33.8 °F 100% 29.97 in 3.0 mi NE 8.1 mph - N/A Rain Light Rain
9:35 AM 33.8 °F 27.7 °F 33.8 °F 100% 29.95 in 3.0 mi NE 6.9 mph - N/A Rain Light Rain
9:55 AM 33.8 °F 27.0 °F 33.8 °F 100% 29.93 in 3.0 mi NE 8.1 mph - 0.01 in Rain Light Rain
10:15 AM 33.8 °F 27.7 °F 33.8 °F 100% 29.91 in 4.0 mi NE 6.9 mph - N/A Rain Light Rain
10:35 AM 33.8 °F 28.6 °F 33.8 °F 100% 29.90 in 4.0 mi NE 5.8 mph - N/A Rain Light Rain
10:55 AM 33.8 °F 25.8 °F 33.8 °F 100% 29.88 in 4.0 mi NNE 10.4 mph - N/A Rain Light Rain
11:15 AM 33.8 °F 26.4 °F 33.8 °F 100% 29.88 in 4.0 mi NE 9.2 mph 18.4 mph 0.01 in Rain Light Rain
11:35 AM 35.6 °F 29.2 °F 33.8 °F 93% 29.86 in 5.0 mi NE 8.1 mph 17.3 mph 0.01 in Rain Light Rain
11:55 AM 35.6 °F 28.0 °F 33.8 °F 93% 29.84 in 5.0 mi NE 10.4 mph 17.3 mph 0.03 in Rain Light Rain
12:15 PM 35.6 °F 28.0 °F 33.8 °F 93% 29.82 in 7.0 mi NNE 10.4 mph 19.6 mph N/A   Overcast
12:35 PM 35.6 °F 28.6 °F 33.8 °F 93% 29.81 in 6.0 mi NE 9.2 mph 17.3 mph N/A Rain Light Rain
12:55 PM 35.6 °F 27.5 °F 33.8 °F 93% 29.79 in 6.0 mi NNE 11.5 mph 19.6 mph 0.01 in Rain Light Rain
1:15 PM 35.6 °F 27.5 °F 33.8 °F 93% 29.78 in 4.0 mi NNE 11.5 mph 18.4 mph N/A Rain Light Rain
1:35 PM 35.6 °F 28.0 °F 33.8 °F 93% 29.77 in 3.0 mi NNE 10.4 mph 19.6 mph N/A   Overcast
1:55 PM 35.6 °F 27.5 °F 33.8 °F 93% 29.75 in 5.0 mi NE 11.5 mph 17.3 mph 0.01 in Rain Light Rain
2:15 PM 35.6 °F 28.0 °F 33.8 °F 93% 29.73 in 5.0 mi NE 10.4 mph 20.7 mph N/A Rain Light Rain
2:35 PM 35.6 °F 29.2 °F 33.8 °F 93% 29.74 in 8.0 mi NE 8.1 mph 18.4 mph N/A   Overcast
2:55 PM 35.6 °F 27.5 °F 33.8 °F 93% 29.73 in 5.0 mi NNE 11.5 mph 19.6 mph N/A Rain Light Rain
3:15 PM 35.6 °F 28.0 °F 33.8 °F 93% 29.73 in 1.8 mi North 10.4 mph 16.1 mph 0.01 in Rain Rain
3:35 PM 35.6 °F 29.9 °F 35.6 °F 100% 29.72 in 1.5 mi North 6.9 mph - 0.06 in   Overcast
3:55 PM 35.6 °F 28.6 °F 33.8 °F 93% 29.71 in 2.5 mi NNE 9.2 mph - 0.08 in   Overcast
4:15 PM 35.6 °F 28.6 °F 33.8 °F 93% 29.71 in 4.0 mi NNE 9.2 mph 16.1 mph N/A Rain Light Rain
4:35 PM 35.6 °F 29.2 °F 33.8 °F 93% 29.71 in 5.0 mi NNE 8.1 mph - N/A   Overcast
4:55 PM 35.6 °F 29.2 °F 33.8 °F 93% 29.73 in 10.0 mi North 8.1 mph - N/A   Overcast
5:15 PM 33.8 °F 27.0 °F 33.8 °F 100% 29.73 in 2.5 mi North 8.1 mph - 0.02 in Rain Rain
5:35 PM 33.8 °F 27.7 °F 33.8 °F 100% 29.73 in 2.5 mi NNW 6.9 mph - 0.05 in   Overcast
5:55 PM 33.8 °F 26.4 °F 33.8 °F 100% 29.74 in 3.0 mi NW 9.2 mph - 0.06 in Snow Light Snow
6:15 PM 33.8 °F 27.0 °F 33.8 °F 100% 29.74 in 3.0 mi NW 8.1 mph - N/A   Overcast
6:35 PM 33.8 °F 25.3 °F 32.0 °F 93% 29.75 in 1.2 mi NW 11.5 mph 17.3 mph 0.07 in Snow Light Snow
6:55 PM 33.8 °F 26.4 °F 32.0 °F 93% 29.75 in 1.5 mi NNW 9.2 mph - 0.15 in Snow Light Snow
7:15 PM 33.8 °F 26.4 °F 32.0 °F 93% 29.75 in 1.5 mi NW 9.2 mph - 0.07 in Snow Light Snow
7:35 PM 33.8 °F 26.4 °F 33.8 °F 100% 29.75 in 1.0 mi NNW 9.2 mph - 0.34 in Snow Snow
7:55 PM 33.8 °F 25.8 °F 32.0 °F 93% 29.76 in 1.8 mi NNW 10.4 mph - 0.60 in Snow Light Snow
8:15 PM 33.8 °F 27.7 °F 32.0 °F 93% 29.76 in 1.8 mi NNW 6.9 mph - 0.12 in Snow Light Snow
8:55 PM 33.8 °F 27.0 °F 32.0 °F 93% 29.76 in 0.8 mi NW 8.1 mph - 0.99 in Snow Snow
9:15 PM 33.8 °F 27.0 °F 33.8 °F 100% 29.76 in 1.5 mi NW 8.1 mph - 0.09 in Snow Light Snow
9:35 PM 33.8 °F 27.0 °F 33.8 °F 100% 29.77 in 1.5 mi NW 8.1 mph - 0.30 in Snow Light Snow
9:55 PM 33.8 °F 27.7 °F 33.8 °F 100% 29.77 in 1.2 mi NW 6.9 mph - 0.62 in   Overcast
10:15 PM 33.8 °F 23.9 °F 33.8 °F 100% 29.77 in 2.5 mi NW 15.0 mph 19.6 mph 0.04 in Snow Light Snow
10:35 PM 33.8 °F 22.8 °F 32.0 °F 93% 29.77 in 4.0 mi NW 18.4 mph 23.0 mph 0.10 in Snow Light Snow
10:55 PM 33.8 °F 22.5 °F 32.0 °F 93% 29.78 in 5.0 mi NW 19.6 mph 27.6 mph 0.14 in   Overcast
11:15 PM 32.0 °F 19.8 °F 32.0 °F 100% 29.79 in 3.0 mi NW 20.7 mph 25.3 mph 0.09 in Snow Light Snow
11:35 PM 32.0 °F 19.5 °F 30.2 °F 93% 29.80 in 4.0 mi NW 21.9 mph 29.9 mph 0.17 in Snow Light Snow
11:55 PM 32.0 °F 19.5 °F 28.4 °F 87% 29.81 in 5.0 mi NW 21.9 mph 31.1 mph 0.20 in   Overcast